Time,TemperatureF,DewpointF,PressureIn,WindDirection,WindDirectionDegrees,WindSpeedMPH,WindSpeedGustMPH,Humidity,HourlyPrecipIn,Conditions,Clouds,dailyrainin,SoftwareType,DateUTC
2013-06-14 00:03:00,54.0,45.9,29.99,WSW,247,0.0,4.0,74,0.00,,,0.00,Weather View 32 v70,2013-06-14 07:03:00,
2013-06-14 00:08:00,54.0,45.9,29.99,SW,225,2.0,5.0,74,0.00,,,0.00,Weather View 32 v70,2013-06-14 07:08:00,
2013-06-14 00:13:00,54.0,45.9,29.99,SW,225,1.0,9.0,74,0.00,,,0.00,Weather View 32 v70,2013-06-14 07:13:00,
2013-06-14 00:18:00,54.0,47.3,29.99,SW,225,0.0,9.0,78,0.00,,,0.00,Weather View 32 v70,2013-06-14 07:18:00,
2013-06-14 00:23:00,54.0,45.9,29.99,WSW,247,0.0,9.0,74,0.00,,,0.00,Weather View 32 v70,2013-06-14 07:23:00,
2013-06-14 00:28:00,54.0,45.9,29.99,WSW,247,0.0,9.0,74,0.00,,,0.00,Weather View 32 v70,2013-06-14 07:28:00,
2013-06-14 00:33:00,54.0,45.9,29.99,SW,225,1.0,9.0,74,0.00,,,0.00,Weather View 32 v70,2013-06-14 07:33:00,
2013-06-14 00:38:00,54.0,45.9,29.99,SW,225,0.0,9.0,74,0.00,,,0.00,Weather View 32 v70,2013-06-14 07:38:00,
2013-06-14 00:43:00,54.0,45.9,29.99,SW,225,1.0,9.0,74,0.00,,,0.00,Weather View 32 v70,2013-06-14 07:43:00,
2013-06-14 00:48:00,54.0,45.9,29.99,SW,225,3.0,9.0,74,0.00,,,0.00,Weather View 32 v70,2013-06-14 07:48:00,
2013-06-14 00:52:00,54.0,47.3,29.98,SW,225,3.0,9.0,78,0.00,,,0.00,Weather View 32 v70,2013-06-14 07:52:00,
2013-06-14 00:57:00,54.0,45.9,29.98,SW,225,1.0,9.0,74,0.00,,,0.00,Weather View 32 v70,2013-06-14 07:57:00,
2013-06-14 01:03:00,54.0,45.9,29.98,WSW,247,0.0,9.0,74,0.00,,,0.00,Weather View 32 v70,2013-06-14 08:03:00,
2013-06-14 01:07:00,54.0,45.9,29.98,SW,225,0.0,9.0,74,0.00,,,0.00,Weather View 32 v70,2013-06-14 08:07:00,
2013-06-14 01:12:00,54.0,45.9,29.98,WSW,247,0.0,9.0,74,0.00,,,0.00,Weather View 32 v70,2013-06-14 08:12:00,
2013-06-14 01:17:00,53.0,44.9,29.98,SW,225,1.0,7.0,74,0.00,,,0.00,Weather View 32 v70,2013-06-14 08:17:00,
2013-06-14 01:22:00,53.0,45.3,29.98,SW,225,0.0,7.0,75,0.00,,,0.00,Weather View 32 v70,2013-06-14 08:22:00,
2013-06-14 01:27:00,53.0,46.6,29.98,SW,225,0.0,7.0,79,0.00,,,0.00,Weather View 32 v70,2013-06-14 08:27:00,
2013-06-14 01:32:00,53.0,45.6,29.98,WSW,247,0.0,7.0,76,0.00,,,0.00,Weather View 32 v70,2013-06-14 08:32:00,
2013-06-14 01:37:00,53.0,45.6,29.97,SW,225,1.0,7.0,76,0.00,,,0.00,Weather View 32 v70,2013-06-14 08:37:00,
2013-06-14 01:42:00,53.0,45.6,29.97,WSW,247,0.0,7.0,76,0.00,,,0.00,Weather View 32 v70,2013-06-14 08:42:00,
2013-06-14 01:52:00,53.0,45.6,29.97,WSW,247,0.0,7.0,76,0.00,,,0.00,Weather View 32 v70,2013-06-14 08:52:00,
2013-06-14 01:57:00,53.0,45.6,29.97,WSW,247,0.0,6.0,76,0.00,,,0.00,Weather View 32 v70,2013-06-14 08:57:00,
2013-06-14 02:02:00,53.0,45.6,29.97,WSW,247,0.0,6.0,76,0.00,,,0.00,Weather View 32 v70,2013-06-14 09:02:00,
2013-06-14 02:07:00,53.0,45.6,29.97,SW,225,0.0,6.0,76,0.00,,,0.00,Weather View 32 v70,2013-06-14 09:07:00,
2013-06-14 02:11:00,53.0,45.6,29.97,SW,225,0.0,6.0,76,0.00,,,0.00,Weather View 32 v70,2013-06-14 09:11:00,
2013-06-14 02:12:00,53.0,45.6,29.97,SW,225,0.0,6.0,76,0.00,,,0.00,Weather View 32 v70,2013-06-14 09:12:00,
2013-06-14 02:17:00,53.0,46.6,29.97,SW,225,0.0,6.0,79,0.00,,,0.00,Weather View 32 v70,2013-06-14 09:17:00,
2013-06-14 02:22:00,53.0,45.6,29.97,SW,225,0.0,6.0,76,0.00,,,0.00,Weather View 32 v70,2013-06-14 09:22:00,
2013-06-14 02:27:00,53.0,45.6,29.96,WSW,247,0.0,6.0,76,0.00,,,0.00,Weather View 32 v70,2013-06-14 09:27:00,
2013-06-14 02:32:00,53.0,45.6,29.97,WSW,247,0.0,6.0,76,0.00,,,0.00,Weather View 32 v70,2013-06-14 09:32:00,
2013-06-14 02:33:00,53.0,45.6,29.97,WSW,247,0.0,6.0,76,0.00,,,0.00,Weather View 32 v70,2013-06-14 09:33:00,
2013-06-14 02:38:00,53.0,46.6,29.97,WSW,247,0.0,6.0,79,0.00,,,0.00,Weather View 32 v70,2013-06-14 09:38:00,
2013-06-14 02:43:00,53.0,45.6,29.97,WSW,247,0.0,6.0,76,0.00,,,0.00,Weather View 32 v70,2013-06-14 09:43:00,
2013-06-14 02:48:00,53.0,45.6,29.97,WSW,247,0.0,1.0,76,0.00,,,0.00,Weather View 32 v70,2013-06-14 09:48:00,
2013-06-14 02:53:00,53.0,45.6,29.96,WSW,247,0.0,0.0,76,0.00,,,0.00,Weather View 32 v70,2013-06-14 09:53:00,
2013-06-14 02:58:00,53.0,45.6,29.96,SW,225,0.0,0.0,76,0.00,,,0.00,Weather View 32 v70,2013-06-14 09:58:00,
2013-06-14 03:03:00,53.0,45.6,29.96,SW,225,0.0,0.0,76,0.00,,,0.00,Weather View 32 v70,2013-06-14 10:03:00,
2013-06-14 03:08:00,52.0,44.7,29.97,SW,225,0.0,0.0,76,0.00,,,0.00,Weather View 32 v70,2013-06-14 10:08:00,
2013-06-14 03:12:00,52.0,44.7,29.97,SW,225,0.0,0.0,76,0.00,,,0.00,Weather View 32 v70,2013-06-14 10:12:00,
2013-06-14 03:13:00,52.0,45.7,29.96,SW,225,0.0,0.0,79,0.00,,,0.00,Weather View 32 v70,2013-06-14 10:13:00,
2013-06-14 03:23:00,52.0,44.7,29.96,SW,225,0.0,0.0,76,0.00,,,0.00,Weather View 32 v70,2013-06-14 10:23:00,
2013-06-14 03:28:00,52.0,44.7,29.96,WSW,247,0.0,0.0,76,0.00,,,0.00,Weather View 32 v70,2013-06-14 10:28:00,
2013-06-14 03:33:00,53.0,45.6,29.96,WSW,247,0.0,3.0,76,0.00,,,0.00,Weather View 32 v70,2013-06-14 10:33:00,
2013-06-14 03:38:00,53.0,45.6,29.95,WSW,247,0.0,3.0,76,0.00,,,0.00,Weather View 32 v70,2013-06-14 10:38:00,
2013-06-14 03:43:00,54.0,46.2,29.94,WSW,247,0.0,3.0,75,0.00,,,0.00,Weather View 32 v70,2013-06-14 10:43:00,
2013-06-14 03:48:00,53.0,46.3,29.95,WSW,247,0.0,3.0,78,0.00,,,0.00,Weather View 32 v70,2013-06-14 10:48:00,
2013-06-14 03:53:00,53.0,45.6,29.95,WSW,247,0.0,3.0,76,0.00,,,0.00,Weather View 32 v70,2013-06-14 10:53:00,
2013-06-14 03:58:00,53.0,45.6,29.95,WSW,247,0.0,3.0,76,0.00,,,0.00,Weather View 32 v70,2013-06-14 10:58:00,
2013-06-14 04:03:00,53.0,45.6,29.95,WSW,247,0.0,3.0,76,0.00,,,0.00,Weather View 32 v70,2013-06-14 11:03:00,
2013-06-14 04:08:00,53.0,45.6,29.95,WSW,247,0.0,3.0,76,0.00,,,0.00,Weather View 32 v70,2013-06-14 11:08:00,
2013-06-14 04:13:00,53.0,45.6,29.95,WSW,247,0.0,3.0,76,0.00,,,0.00,Weather View 32 v70,2013-06-14 11:13:00,
2013-06-14 04:18:00,54.0,46.2,29.94,WSW,247,0.0,3.0,75,0.00,,,0.00,Weather View 32 v70,2013-06-14 11:18:00,
2013-06-14 04:23:00,54.0,47.3,29.94,WSW,247,0.0,3.0,78,0.00,,,0.00,Weather View 32 v70,2013-06-14 11:23:00,
2013-06-14 04:28:00,54.0,46.2,29.94,WSW,247,0.0,3.0,75,0.00,,,0.00,Weather View 32 v70,2013-06-14 11:28:00,
2013-06-14 04:33:00,53.0,44.9,29.94,WSW,247,0.0,2.0,74,0.00,,,0.00,Weather View 32 v70,2013-06-14 11:33:00,
2013-06-14 04:38:00,53.0,45.6,29.94,WSW,247,0.0,0.0,76,0.00,,,0.00,Weather View 32 v70,2013-06-14 11:38:00,
2013-06-14 04:43:00,53.0,45.6,29.94,WSW,247,0.0,0.0,76,0.00,,,0.00,Weather View 32 v70,2013-06-14 11:43:00,
2013-06-14 04:53:00,53.0,45.6,29.95,WSW,247,0.0,0.0,76,0.00,,,0.00,Weather View 32 v70,2013-06-14 11:53:00,
2013-06-14 04:58:00,54.0,47.6,29.94,WSW,247,0.0,0.0,79,0.00,,,0.00,Weather View 32 v70,2013-06-14 11:58:00,
2013-06-14 05:03:00,54.0,46.2,29.94,WSW,247,0.0,0.0,75,0.00,,,0.00,Weather View 32 v70,2013-06-14 12:03:00,
2013-06-14 05:08:00,54.0,45.9,29.94,WSW,247,0.0,0.0,74,0.00,,,0.00,Weather View 32 v70,2013-06-14 12:08:00,
2013-06-14 05:13:00,54.0,45.9,29.94,WSW,247,0.0,0.0,74,0.00,,,0.00,Weather View 32 v70,2013-06-14 12:13:00,
2013-06-14 05:18:00,53.0,44.6,29.94,WSW,247,0.0,0.0,73,0.00,,,0.00,Weather View 32 v70,2013-06-14 12:18:00,
2013-06-14 05:23:00,53.0,44.6,29.94,WSW,247,0.0,0.0,73,0.00,,,0.00,Weather View 32 v70,2013-06-14 12:23:00,
2013-06-14 05:28:00,53.0,42.7,29.95,WSW,247,0.0,0.0,68,0.00,,,0.00,Weather View 32 v70,2013-06-14 12:28:00,
2013-06-14 05:33:00,54.0,42.9,29.94,WSW,247,0.0,0.0,66,0.00,,,0.00,Weather View 32 v70,2013-06-14 12:33:00,
2013-06-14 05:38:00,53.0,40.3,29.94,WSW,247,0.0,0.0,62,0.00,,,0.00,Weather View 32 v70,2013-06-14 12:38:00,
2013-06-14 05:43:00,53.0,40.7,29.95,WSW,247,0.0,0.0,63,0.00,,,0.00,Weather View 32 v70,2013-06-14 12:43:00,
2013-06-14 05:48:00,53.0,40.3,29.95,WSW,247,0.0,0.0,62,0.00,,,0.00,Weather View 32 v70,2013-06-14 12:48:00,
2013-06-14 05:53:00,53.0,39.9,29.95,WSW,247,0.0,0.0,61,0.00,,,0.00,Weather View 32 v70,2013-06-14 12:53:00,
2013-06-14 05:58:00,53.0,39.5,29.94,WSW,247,0.0,0.0,60,0.00,,,0.00,Weather View 32 v70,2013-06-14 12:58:00,
2013-06-14 06:02:00,53.0,39.5,29.95,WSW,247,0.0,0.0,60,0.00,,,0.00,Weather View 32 v70,2013-06-14 13:02:00,
2013-06-14 06:07:00,53.0,18.1,29.95,WSW,247,0.0,0.0,25,0.00,,,0.00,Weather View 32 v70,2013-06-14 13:07:00,
2013-06-14 06:12:00,53.0,38.6,29.95,WSW,247,0.0,0.0,58,0.00,,,0.00,Weather View 32 v70,2013-06-14 13:12:00,
2013-06-14 06:17:00,54.0,39.1,29.94,WSW,247,0.0,0.0,57,0.00,,,0.00,Weather View 32 v70,2013-06-14 13:17:00,
2013-06-14 06:22:00,54.0,38.2,29.94,WSW,247,0.0,0.0,55,0.00,,,0.00,Weather View 32 v70,2013-06-14 13:22:00,
2013-06-14 06:27:00,54.0,37.7,29.94,WSW,247,0.0,0.0,54,0.00,,,0.00,Weather View 32 v70,2013-06-14 13:27:00,
2013-06-14 06:37:00,56.0,39.6,29.94,WSW,247,0.0,0.0,54,0.00,,,0.00,Weather View 32 v70,2013-06-14 13:37:00,
2013-06-14 06:42:00,57.0,-42.9,29.93,WSW,247,0.0,0.0,1,0.00,,,0.00,Weather View 32 v70,2013-06-14 13:42:00,
2013-06-14 06:47:00,57.0,39.5,29.93,WSW,247,0.0,0.0,52,0.00,,,0.00,Weather View 32 v70,2013-06-14 13:47:00,
2013-06-14 06:52:00,59.0,41.4,29.93,WSW,247,0.0,0.0,52,0.00,,,0.00,Weather View 32 v70,2013-06-14 13:52:00,
2013-06-14 06:57:00,60.0,-41.1,29.91,WSW,247,0.0,0.0,1,0.00,,,0.00,Weather View 32 v70,2013-06-14 13:57:00,
2013-06-14 07:07:00,61.0,42.2,29.91,WSW,247,0.0,0.0,50,0.00,,,0.00,Weather View 32 v70,2013-06-14 14:07:00,
2013-06-14 07:12:00,62.0,43.1,29.91,WSW,247,0.0,0.0,50,0.00,,,0.00,Weather View 32 v70,2013-06-14 14:12:00,
2013-06-14 07:14:00,62.0,43.1,29.91,WSW,247,0.0,0.0,50,0.00,,,0.00,Weather View 32 v70,2013-06-14 14:14:00,
2013-06-14 07:17:00,63.0,44.0,29.91,WSW,247,0.0,0.0,50,0.00,,,0.00,Weather View 32 v70,2013-06-14 14:17:00,
2013-06-14 07:22:00,63.0,43.0,29.91,WSW,247,0.0,0.0,48,0.00,,,0.00,Weather View 32 v70,2013-06-14 14:22:00,
2013-06-14 07:27:00,63.0,43.0,29.91,WSW,247,0.0,0.0,48,0.00,,,0.00,Weather View 32 v70,2013-06-14 14:27:00,
2013-06-14 07:32:00,63.0,-39.3,29.91,WSW,247,0.0,4.0,1,0.00,,,0.00,Weather View 32 v70,2013-06-14 14:32:00,
2013-06-14 07:38:00,63.0,42.4,29.91,WSW,247,3.0,3.0,47,0.00,,,0.00,Weather View 32 v70,2013-06-14 14:38:00,
2013-06-14 07:43:00,64.0,43.3,29.91,WSW,247,0.0,3.0,47,0.00,,,0.00,Weather View 32 v70,2013-06-14 14:43:00,
2013-06-14 07:48:00,64.0,43.3,29.91,WSW,247,0.0,4.0,47,0.00,,,0.00,Weather View 32 v70,2013-06-14 14:48:00,
2013-06-14 07:53:00,64.0,-38.7,29.91,WSW,247,0.0,4.0,1,0.00,,,0.00,Weather View 32 v70,2013-06-14 14:53:00,
2013-06-14 07:58:00,64.0,43.3,29.91,WSW,247,0.0,4.0,47,0.00,,,0.00,Weather View 32 v70,2013-06-14 14:58:00,
2013-06-14 08:03:00,65.0,44.2,29.91,WSW,247,0.0,4.0,47,0.00,,,0.00,Weather View 32 v70,2013-06-14 15:03:00,
2013-06-14 08:08:00,66.0,45.1,29.90,WSW,247,2.0,4.0,47,0.00,,,0.00,Weather View 32 v70,2013-06-14 15:08:00,
2013-06-14 08:13:00,67.0,46.1,29.90,WSW,247,0.0,4.0,47,0.00,,,0.00,Weather View 32 v70,2013-06-14 15:13:00,
2013-06-14 08:15:00,67.0,46.1,29.90,WSW,247,0.0,4.0,47,0.00,,,0.00,Weather View 32 v70,2013-06-14 15:15:00,
2013-06-14 08:18:00,66.0,45.1,29.90,SW,225,0.0,4.0,47,0.00,,,0.00,Weather View 32 v70,2013-06-14 15:18:00,
2013-06-14 08:28:00,67.0,-36.9,29.90,SW,225,0.0,5.0,1,0.00,,,0.00,Weather View 32 v70,2013-06-14 15:28:00,
2013-06-14 08:33:00,68.0,47.0,29.90,SW,225,2.0,5.0,47,0.00,,,0.00,Weather View 32 v70,2013-06-14 15:33:00,
2013-06-14 08:38:00,69.0,47.3,29.90,SW,225,0.0,5.0,46,0.00,,,0.00,Weather View 32 v70,2013-06-14 15:38:00,
2013-06-14 08:43:00,70.0,48.2,29.89,SW,225,0.0,5.0,46,0.00,,,0.00,Weather View 32 v70,2013-06-14 15:43:00,
2013-06-14 08:53:00,71.0,49.1,29.89,SW,225,0.0,5.0,46,0.00,,,0.00,Weather View 32 v70,2013-06-14 15:53:00,
2013-06-14 08:58:00,71.0,48.5,29.89,SW,225,0.0,5.0,45,0.00,,,0.00,Weather View 32 v70,2013-06-14 15:58:00,
2013-06-14 09:03:00,72.0,-33.9,29.88,SW,225,2.0,5.0,1,0.00,,,0.00,Weather View 32 v70,2013-06-14 16:03:00,
2013-06-14 09:08:00,72.0,49.4,29.88,SW,225,0.0,5.0,45,0.00,,,0.00,Weather View 32 v70,2013-06-14 16:08:00,
2013-06-14 09:13:00,73.0,50.3,29.88,SW,225,0.0,5.0,45,0.00,,,0.00,Weather View 32 v70,2013-06-14 16:13:00,
2013-06-14 09:15:00,73.0,50.3,29.88,SW,225,0.0,5.0,45,0.00,,,0.00,Weather View 32 v70,2013-06-14 16:15:00,
2013-06-14 09:18:00,73.0,50.9,29.88,SW,225,0.0,5.0,46,0.00,,,0.00,Weather View 32 v70,2013-06-14 16:18:00,
2013-06-14 09:23:00,72.0,50.0,29.88,SW,225,0.0,5.0,46,0.00,,,0.00,Weather View 32 v70,2013-06-14 16:23:00,
2013-06-14 09:28:00,73.0,50.9,29.88,SW,225,4.0,5.0,46,0.00,,,0.00,Weather View 32 v70,2013-06-14 16:28:00,
2013-06-14 09:33:00,74.0,51.8,29.88,SW,225,0.0,5.0,46,0.00,,,0.00,Weather View 32 v70,2013-06-14 16:33:00,
2013-06-14 09:38:00,74.0,-32.7,29.88,SW,225,0.0,7.0,1,0.00,,,0.00,Weather View 32 v70,2013-06-14 16:38:00,
2013-06-14 09:43:00,75.0,52.8,29.88,SW,225,0.0,7.0,46,0.00,,,0.00,Weather View 32 v70,2013-06-14 16:43:00,
2013-06-14 09:48:00,76.0,53.7,29.87,SW,225,3.0,7.0,46,0.00,,,0.00,Weather View 32 v70,2013-06-14 16:48:00,
2013-06-14 09:53:00,76.0,53.7,29.87,SW,225,0.0,7.0,46,0.00,,,0.00,Weather View 32 v70,2013-06-14 16:53:00,
2013-06-14 09:58:00,77.0,54.6,29.87,SW,225,0.0,7.0,46,0.00,,,0.00,Weather View 32 v70,2013-06-14 16:58:00,
2013-06-14 10:03:00,76.0,53.1,29.86,WSW,247,0.0,7.0,45,0.00,,,0.00,Weather View 32 v70,2013-06-14 17:03:00,
2013-06-14 10:08:00,76.0,55.4,29.87,SW,225,1.0,7.0,49,0.00,,,0.00,Weather View 32 v70,2013-06-14 17:08:00,
2013-06-14 10:13:00,77.0,-30.9,29.86,SW,225,1.0,7.0,1,0.00,,,0.00,Weather View 32 v70,2013-06-14 17:13:00,
2013-06-14 10:16:00,77.0,-30.9,29.86,SW,225,1.0,7.0,1,0.00,,,0.00,Weather View 32 v70,2013-06-14 17:16:00,
2013-06-14 10:18:00,76.0,56.0,29.86,SW,225,3.0,7.0,50,0.00,,,0.00,Weather View 32 v70,2013-06-14 17:18:00,
2013-06-14 10:23:00,76.0,55.4,29.87,SW,225,0.0,7.0,49,0.00,,,0.00,Weather View 32 v70,2013-06-14 17:23:00,
2013-06-14 10:28:00,77.0,56.9,29.86,SW,225,2.0,7.0,50,0.00,,,0.00,Weather View 32 v70,2013-06-14 17:28:00,
2013-06-14 10:33:00,78.0,54.9,29.86,SW,225,0.0,7.0,45,0.00,,,0.00,Weather View 32 v70,2013-06-14 17:33:00,
2013-06-14 10:43:00,79.0,56.4,29.85,WSW,247,2.0,7.0,46,0.00,,,0.00,Weather View 32 v70,2013-06-14 17:43:00,
2013-06-14 10:47:00,79.0,-29.7,29.85,SW,225,6.0,7.0,1,0.00,,,0.00,Weather View 32 v70,2013-06-14 17:47:00,
2013-06-14 10:52:00,80.0,57.3,29.85,SW,225,0.0,7.0,46,0.00,,,0.00,Weather View 32 v70,2013-06-14 17:52:00,
2013-06-14 10:57:00,81.0,60.0,29.84,SW,225,0.0,7.0,49,0.00,,,0.00,Weather View 32 v70,2013-06-14 17:57:00,
2013-06-14 11:08:00,78.0,56.1,29.84,SW,225,6.0,10.0,47,0.00,,,0.00,Weather View 32 v70,2013-06-14 18:08:00,
2013-06-14 11:12:00,76.0,54.8,29.86,WSW,247,2.0,10.0,48,0.00,,,0.00,Weather View 32 v70,2013-06-14 18:12:00,
2013-06-14 11:16:00,76.0,54.8,29.86,WSW,247,2.0,10.0,48,0.00,,,0.00,Weather View 32 v70,2013-06-14 18:16:00,
2013-06-14 11:17:00,75.0,53.3,29.87,SW,225,4.0,12.0,47,0.00,,,0.00,Weather View 32 v70,2013-06-14 18:17:00,
2013-06-14 11:22:00,75.0,-32.1,29.87,SW,225,10.0,12.0,1,0.00,,,0.00,Weather View 32 v70,2013-06-14 18:22:00,
2013-06-14 11:27:00,74.0,51.8,29.87,SW,225,7.0,12.0,46,0.00,,,0.00,Weather View 32 v70,2013-06-14 18:27:00,
2013-06-14 11:37:00,74.0,52.4,29.87,SW,225,3.0,12.0,47,0.00,,,0.00,Weather View 32 v70,2013-06-14 18:37:00,
2013-06-14 11:42:00,75.0,53.3,29.87,SW,225,5.0,12.0,47,0.00,,,0.00,Weather View 32 v70,2013-06-14 18:42:00,
2013-06-14 11:47:00,75.0,53.9,29.87,SW,225,5.0,12.0,48,0.00,,,0.00,Weather View 32 v70,2013-06-14 18:47:00,
2013-06-14 11:52:00,76.0,54.2,29.86,SW,225,1.0,12.0,47,0.00,,,0.00,Weather View 32 v70,2013-06-14 18:52:00,
2013-06-14 11:57:00,76.0,54.2,29.86,SW,225,1.0,12.0,47,0.00,,,0.00,Weather View 32 v70,2013-06-14 18:57:00,
2013-06-14 12:02:00,76.0,54.8,29.86,WSW,247,8.0,12.0,48,0.00,,,0.00,Weather View 32 v70,2013-06-14 19:02:00,
2013-06-14 12:07:00,76.0,54.2,29.86,SW,225,4.0,12.0,47,0.00,,,0.00,Weather View 32 v70,2013-06-14 19:07:00,
2013-06-14 12:12:00,76.0,-31.5,29.86,SW,225,2.0,12.0,1,0.00,,,0.00,Weather View 32 v70,2013-06-14 19:12:00,
2013-06-14 12:16:00,76.0,-31.5,29.86,SW,225,2.0,12.0,1,0.00,,,0.00,Weather View 32 v70,2013-06-14 19:16:00,
2013-06-14 12:22:00,76.0,54.2,29.86,SW,225,2.0,12.0,47,0.00,,,0.00,Weather View 32 v70,2013-06-14 19:22:00,
2013-06-14 12:27:00,76.0,54.2,29.85,SW,225,5.0,12.0,47,0.00,,,0.00,Weather View 32 v70,2013-06-14 19:27:00,
2013-06-14 12:33:00,75.0,-32.1,29.86,SW,225,9.0,13.0,1,0.00,,,0.00,Weather View 32 v70,2013-06-14 19:33:00,
2013-06-14 12:38:00,73.0,53.2,29.86,SW,225,9.0,15.0,50,0.00,,,0.00,Weather View 32 v70,2013-06-14 19:38:00,
2013-06-14 12:43:00,72.0,52.3,29.87,WSW,247,8.0,15.0,50,0.00,,,0.00,Weather View 32 v70,2013-06-14 19:43:00,
2013-06-14 12:48:00,71.0,49.7,29.87,WSW,247,13.0,16.0,47,0.00,,,0.00,Weather View 32 v70,2013-06-14 19:48:00,
2013-06-14 12:53:00,70.0,50.5,29.87,SW,225,10.0,17.0,50,0.00,,,0.00,Weather View 32 v70,2013-06-14 19:53:00,
2013-06-14 12:58:00,70.0,50.5,29.88,SW,225,7.0,17.0,50,0.00,,,0.00,Weather View 32 v70,2013-06-14 19:58:00,
2013-06-14 13:03:00,70.0,49.4,29.88,WSW,247,5.0,17.0,48,0.00,,,0.00,Weather View 32 v70,2013-06-14 20:03:00,
2013-06-14 13:08:00,69.0,-35.7,29.88,WSW,247,12.0,17.0,1,0.00,,,0.00,Weather View 32 v70,2013-06-14 20:08:00,
2013-06-14 13:13:00,69.0,47.9,29.88,SW,225,17.0,17.0,47,0.00,,,0.00,Weather View 32 v70,2013-06-14 20:13:00,
2013-06-14 13:18:00,69.0,47.9,29.88,SW,225,17.0,17.0,47,0.00,,,0.00,Weather View 32 v70,2013-06-14 20:18:00,
2013-06-14 13:23:00,69.0,49.5,29.88,SW,225,10.0,17.0,50,0.00,,,0.00,Weather View 32 v70,2013-06-14 20:23:00,
2013-06-14 13:28:00,68.0,48.1,29.88,SW,225,12.0,19.0,49,0.00,,,0.00,Weather View 32 v70,2013-06-14 20:28:00,
2013-06-14 13:33:00,68.0,49.1,29.88,SW,225,7.0,19.0,51,0.00,,,0.00,Weather View 32 v70,2013-06-14 20:33:00,
2013-06-14 13:38:00,68.0,48.6,29.87,SW,225,10.0,19.0,50,0.00,,,0.00,Weather View 32 v70,2013-06-14 20:38:00,
2013-06-14 13:43:00,69.0,-35.7,29.87,WSW,247,12.0,19.0,1,0.00,,,0.00,Weather View 32 v70,2013-06-14 20:43:00,
2013-06-14 13:48:00,68.0,49.1,29.87,SW,225,8.0,19.0,51,0.00,,,0.00,Weather View 32 v70,2013-06-14 20:48:00,
2013-06-14 13:53:00,68.0,49.1,29.87,WSW,247,6.0,19.0,51,0.00,,,0.00,Weather View 32 v70,2013-06-14 20:53:00,
2013-06-14 13:58:00,69.0,48.4,29.87,SW,225,5.0,19.0,48,0.00,,,0.00,Weather View 32 v70,2013-06-14 20:58:00,
2013-06-14 14:03:00,70.0,48.8,29.87,SW,225,6.0,19.0,47,0.00,,,0.00,Weather View 32 v70,2013-06-14 21:03:00,
2013-06-14 14:08:00,70.0,48.8,29.86,SW,225,7.0,19.0,47,0.00,,,0.00,Weather View 32 v70,2013-06-14 21:08:00,
2013-06-14 14:13:00,70.0,48.2,29.85,WSW,247,11.0,19.0,46,0.00,,,0.00,Weather View 32 v70,2013-06-14 21:13:00,
2013-06-14 14:18:00,70.0,-35.1,29.86,WSW,247,13.0,19.0,1,0.00,,,0.00,Weather View 32 v70,2013-06-14 21:18:00,
2013-06-14 14:23:00,70.0,50.5,29.86,SW,225,2.0,19.0,50,0.00,,,0.00,Weather View 32 v70,2013-06-14 21:23:00,
2013-06-14 14:28:00,70.0,49.9,29.85,SW,225,13.0,17.0,49,0.00,,,0.00,Weather View 32 v70,2013-06-14 21:28:00,
2013-06-14 14:33:00,70.0,49.4,29.85,SW,225,5.0,17.0,48,0.00,,,0.00,Weather View 32 v70,2013-06-14 21:33:00,
2013-06-14 14:38:00,70.0,46.4,29.85,SW,225,12.0,17.0,43,0.00,,,0.00,Weather View 32 v70,2013-06-14 21:38:00,
2013-06-14 14:43:00,69.0,45.5,29.85,SW,225,6.0,17.0,43,0.00,,,0.00,Weather View 32 v70,2013-06-14 21:43:00,
2013-06-14 14:48:00,69.0,49.0,29.86,SW,225,9.0,17.0,49,0.00,,,0.00,Weather View 32 v70,2013-06-14 21:48:00,
2013-06-14 14:53:00,69.0,-35.7,29.85,SW,225,9.0,21.0,1,0.00,,,0.00,Weather View 32 v70,2013-06-14 21:53:00,
2013-06-14 14:58:00,68.0,47.5,29.85,SW,225,11.0,21.0,48,0.00,,,0.00,Weather View 32 v70,2013-06-14 21:58:00,
2013-06-14 15:03:00,67.0,41.8,29.85,SW,225,6.0,21.0,40,0.00,,,0.00,Weather View 32 v70,2013-06-14 22:03:00,
2013-06-14 15:08:00,67.0,41.2,29.86,SW,225,9.0,21.0,39,0.00,,,0.00,Weather View 32 v70,2013-06-14 22:08:00,
2013-06-14 15:13:00,66.0,42.8,29.86,WSW,247,18.0,21.0,43,0.00,,,0.00,Weather View 32 v70,2013-06-14 22:13:00,
2013-06-14 15:19:00,65.0,40.7,29.86,SW,225,6.0,21.0,41,0.00,,,0.00,Weather View 32 v70,2013-06-14 22:19:00,
2013-06-14 15:28:00,66.0,-37.5,29.86,SW,225,11.0,21.0,1,0.00,,,0.00,Weather View 32 v70,2013-06-14 22:28:00,
2013-06-14 15:33:00,65.0,38.0,29.86,WSW,247,12.0,21.0,37,0.00,,,0.00,Weather View 32 v70,2013-06-14 22:33:00,
2013-06-14 15:38:00,65.0,38.0,29.86,SW,225,10.0,21.0,37,0.00,,,0.00,Weather View 32 v70,2013-06-14 22:38:00,
2013-06-14 15:43:00,65.0,38.7,29.85,WSW,247,10.0,21.0,38,0.00,,,0.00,Weather View 32 v70,2013-06-14 22:43:00,
2013-06-14 15:48:00,65.0,39.4,29.85,WSW,247,10.0,22.0,39,0.00,,,0.00,Weather View 32 v70,2013-06-14 22:48:00,
2013-06-14 15:53:00,65.0,45.3,29.86,SW,225,9.0,22.0,49,0.00,,,0.00,Weather View 32 v70,2013-06-14 22:53:00,
2013-06-14 15:58:00,65.0,36.6,29.85,SW,225,7.0,22.0,35,0.00,,,0.00,Weather View 32 v70,2013-06-14 22:58:00,
2013-06-14 16:07:00,65.0,41.9,29.86,WSW,247,5.0,22.0,43,0.00,,,0.00,Weather View 32 v70,2013-06-14 23:07:00,
2013-06-14 16:12:00,65.0,35.9,29.85,WSW,247,10.0,22.0,34,0.00,,,0.00,Weather View 32 v70,2013-06-14 23:12:00,
2013-06-14 16:17:00,64.0,35.0,29.85,WSW,247,10.0,22.0,34,0.00,,,0.00,Weather View 32 v70,2013-06-14 23:17:00,
2013-06-14 16:19:00,64.0,35.0,29.85,WSW,247,10.0,22.0,34,0.00,,,0.00,Weather View 32 v70,2013-06-14 23:19:00,
2013-06-14 16:22:00,64.0,36.4,29.85,WSW,247,6.0,22.0,36,0.00,,,0.00,Weather View 32 v70,2013-06-14 23:22:00,
2013-06-14 16:27:00,64.0,35.7,29.85,SW,225,12.0,22.0,35,0.00,,,0.00,Weather View 32 v70,2013-06-14 23:27:00,
2013-06-14 16:32:00,65.0,36.6,29.84,SW,225,7.0,22.0,35,0.00,,,0.00,Weather View 32 v70,2013-06-14 23:32:00,
2013-06-14 16:37:00,65.0,-38.1,29.84,WSW,247,4.0,22.0,1,0.00,,,0.00,Weather View 32 v70,2013-06-14 23:37:00,
2013-06-14 16:42:00,64.0,36.4,29.84,SW,225,6.0,22.0,36,0.00,,,0.00,Weather View 32 v70,2013-06-14 23:42:00,
2013-06-14 16:47:00,64.0,35.0,29.85,SW,225,11.0,22.0,34,0.00,,,0.00,Weather View 32 v70,2013-06-14 23:47:00,
2013-06-14 16:52:00,64.0,-38.7,29.85,WSW,247,11.0,22.0,1,0.00,,,0.00,Weather View 32 v70,2013-06-14 23:52:00,
2013-06-14 16:57:00,65.0,35.9,29.85,SW,225,7.0,22.0,34,0.00,,,0.00,Weather View 32 v70,2013-06-14 23:57:00,
2013-06-14 17:02:00,65.0,37.3,29.84,SW,225,4.0,22.0,36,0.00,,,0.00,Weather View 32 v70,2013-06-15 00:02:00,
2013-06-14 17:07:00,64.0,35.0,29.83,WSW,247,10.0,22.0,34,0.00,,,0.00,Weather View 32 v70,2013-06-15 00:07:00,
2013-06-14 17:12:00,64.0,35.7,29.83,SW,225,10.0,23.0,35,0.00,,,0.00,Weather View 32 v70,2013-06-15 00:12:00,
2013-06-14 17:17:00,64.0,35.0,29.84,WSW,247,6.0,23.0,34,0.00,,,0.00,Weather View 32 v70,2013-06-15 00:17:00,
2013-06-14 17:22:00,64.0,35.0,29.84,SW,225,6.0,23.0,34,0.00,,,0.00,Weather View 32 v70,2013-06-15 00:22:00,
2013-06-14 17:27:00,63.0,-39.3,29.84,SW,225,6.0,23.0,1,0.00,,,0.00,Weather View 32 v70,2013-06-15 00:27:00,
2013-06-14 17:33:00,62.0,33.2,29.84,WSW,247,4.0,23.0,34,0.00,,,0.00,Weather View 32 v70,2013-06-15 00:33:00,
2013-06-14 17:38:00,62.0,34.0,29.84,WSW,247,11.0,23.0,35,0.00,,,0.00,Weather View 32 v70,2013-06-15 00:38:00,
2013-06-14 17:43:00,62.0,34.0,29.85,SW,225,8.0,23.0,35,0.00,,,0.00,Weather View 32 v70,2013-06-15 00:43:00,
2013-06-14 17:48:00,62.0,-39.9,29.85,SW,225,7.0,23.0,1,0.00,,,0.00,Weather View 32 v70,2013-06-15 00:48:00,
2013-06-14 17:53:00,62.0,34.0,29.85,SW,225,9.0,23.0,35,0.00,,,0.00,Weather View 32 v70,2013-06-15 00:53:00,
2013-06-14 17:58:00,61.0,33.1,29.84,SW,225,10.0,23.0,35,0.00,,,0.00,Weather View 32 v70,2013-06-15 00:58:00,
2013-06-14 18:03:00,61.0,33.1,29.84,WSW,247,14.0,23.0,35,0.00,,,0.00,Weather View 32 v70,2013-06-15 01:03:00,
2013-06-14 18:08:00,61.0,33.1,29.84,WSW,247,12.0,23.0,35,0.00,,,0.00,Weather View 32 v70,2013-06-15 01:08:00,
2013-06-14 18:13:00,60.0,32.2,29.84,SW,225,12.0,22.0,35,0.00,,,0.00,Weather View 32 v70,2013-06-15 01:13:00,
2013-06-14 18:18:00,60.0,32.2,29.85,SW,225,1.0,23.0,35,0.00,,,0.00,Weather View 32 v70,2013-06-15 01:18:00,
2013-06-14 18:23:00,60.0,-41.1,29.84,SW,225,6.0,23.0,1,0.00,,,0.00,Weather View 32 v70,2013-06-15 01:23:00,
2013-06-14 18:28:00,60.0,32.9,29.84,WSW,247,6.0,23.0,36,0.00,,,0.00,Weather View 32 v70,2013-06-15 01:28:00,
2013-06-14 18:33:00,60.0,32.9,29.84,SW,225,8.0,23.0,36,0.00,,,0.00,Weather View 32 v70,2013-06-15 01:33:00,
2013-06-14 18:38:00,59.0,32.0,29.85,WSW,247,7.0,23.0,36,0.00,,,0.00,Weather View 32 v70,2013-06-15 01:38:00,
2013-06-14 18:43:00,59.0,32.0,29.85,SW,225,19.0,23.0,36,0.00,,,0.00,Weather View 32 v70,2013-06-15 01:43:00,
2013-06-14 18:48:00,59.0,32.7,29.85,SW,225,6.0,23.0,37,0.00,,,0.00,Weather View 32 v70,2013-06-15 01:48:00,
2013-06-14 18:53:00,58.0,32.5,29.84,SW,225,12.0,23.0,38,0.00,,,0.00,Weather View 32 v70,2013-06-15 01:53:00,
2013-06-14 18:58:00,58.0,-42.3,29.85,SW,225,8.0,23.0,1,0.00,,,0.00,Weather View 32 v70,2013-06-15 01:58:00,
2013-06-14 19:03:00,58.0,32.5,29.85,SW,225,6.0,23.0,38,0.00,,,0.00,Weather View 32 v70,2013-06-15 02:03:00,
2013-06-14 19:08:00,58.0,32.5,29.85,WSW,247,5.0,23.0,38,0.00,,,0.00,Weather View 32 v70,2013-06-15 02:08:00,
2013-06-14 19:13:00,57.0,32.2,29.85,WSW,247,5.0,23.0,39,0.00,,,0.00,Weather View 32 v70,2013-06-15 02:13:00,
2013-06-14 19:18:00,58.0,33.1,29.85,SW,225,1.0,23.0,39,0.00,,,0.00,Weather View 32 v70,2013-06-15 02:18:00,
2013-06-14 19:21:00,58.0,33.1,29.85,SW,225,1.0,23.0,39,0.00,,,0.00,Weather View 32 v70,2013-06-15 02:21:00,
2013-06-14 19:23:00,57.0,36.4,29.85,WSW,247,5.0,23.0,46,0.00,,,0.00,Weather View 32 v70,2013-06-15 02:23:00,
2013-06-14 19:28:00,56.0,40.9,29.86,WSW,247,11.0,23.0,57,0.00,,,0.00,Weather View 32 v70,2013-06-15 02:28:00,
2013-06-14 19:33:00,56.0,8.9,29.86,SW,225,2.0,23.0,15,0.00,,,0.00,Weather View 32 v70,2013-06-15 02:33:00,
2013-06-14 19:38:00,55.0,40.5,29.86,SW,225,4.0,23.0,58,0.00,,,0.00,Weather View 32 v70,2013-06-15 02:38:00,
2013-06-14 19:43:00,55.0,40.9,29.86,SW,225,4.0,23.0,59,0.00,,,0.00,Weather View 32 v70,2013-06-15 02:43:00,
2013-06-14 19:48:00,54.0,40.0,29.87,SW,225,7.0,22.0,59,0.00,,,0.00,Weather View 32 v70,2013-06-15 02:48:00,
2013-06-14 19:53:00,54.0,40.4,29.87,SW,225,0.0,22.0,60,0.00,,,0.00,Weather View 32 v70,2013-06-15 02:53:00,
2013-06-14 19:58:00,54.0,40.4,29.87,SW,225,1.0,20.0,60,0.00,,,0.00,Weather View 32 v70,2013-06-15 02:58:00,
2013-06-14 20:03:00,54.0,40.4,29.87,SW,225,10.0,20.0,60,0.00,,,0.00,Weather View 32 v70,2013-06-15 03:03:00,
2013-06-14 20:08:00,54.0,29.6,29.87,SW,225,3.0,20.0,39,0.00,,,0.00,Weather View 32 v70,2013-06-15 03:08:00,
2013-06-14 20:13:00,53.0,39.5,29.87,SW,225,2.0,20.0,60,0.00,,,0.00,Weather View 32 v70,2013-06-15 03:13:00,
2013-06-14 20:18:00,53.0,39.5,29.87,SW,225,17.0,20.0,60,0.00,,,0.00,Weather View 32 v70,2013-06-15 03:18:00,
2013-06-14 20:21:00,53.0,39.5,29.87,SW,225,17.0,20.0,60,0.00,,,0.00,Weather View 32 v70,2013-06-15 03:21:00,
2013-06-14 20:23:00,53.0,39.9,29.88,SW,225,3.0,19.0,61,0.00,,,0.00,Weather View 32 v70,2013-06-15 03:23:00,
2013-06-14 20:28:00,53.0,39.9,29.88,SW,225,0.0,19.0,61,0.00,,,0.00,Weather View 32 v70,2013-06-15 03:28:00,
2013-06-14 20:38:00,53.0,40.7,29.88,SW,225,0.0,19.0,63,0.00,,,0.00,Weather View 32 v70,2013-06-15 03:38:00,
2013-06-14 20:43:00,53.0,41.1,29.88,SW,225,0.0,19.0,64,0.00,,,0.00,Weather View 32 v70,2013-06-15 03:43:00,
2013-06-14 20:48:00,52.0,40.2,29.88,SW,225,0.0,19.0,64,0.00,,,0.00,Weather View 32 v70,2013-06-15 03:48:00,
2013-06-14 20:53:00,52.0,40.6,29.89,SW,225,0.0,19.0,65,0.00,,,0.00,Weather View 32 v70,2013-06-15 03:53:00,
2013-06-14 20:58:00,52.0,41.0,29.89,SW,225,4.0,19.0,66,0.00,,,0.00,Weather View 32 v70,2013-06-15 03:58:00,
2013-06-14 21:02:00,52.0,41.4,29.89,SW,225,3.0,19.0,67,0.00,,,0.00,Weather View 32 v70,2013-06-15 04:02:00,
2013-06-14 21:07:00,52.0,41.7,29.89,SW,225,0.0,19.0,68,0.00,,,0.00,Weather View 32 v70,2013-06-15 04:07:00,
2013-06-14 21:12:00,52.0,42.1,29.89,SW,225,1.0,19.0,69,0.00,,,0.00,Weather View 32 v70,2013-06-15 04:12:00,
2013-06-14 21:17:00,52.0,43.2,29.89,SW,225,0.0,19.0,72,0.00,,,0.00,Weather View 32 v70,2013-06-15 04:17:00,
2013-06-14 21:22:00,52.0,42.5,29.89,SW,225,2.0,14.0,70,0.00,,,0.00,Weather View 32 v70,2013-06-15 04:22:00,
2013-06-14 21:27:00,52.0,42.9,29.89,SW,225,6.0,14.0,71,0.00,,,0.00,Weather View 32 v70,2013-06-15 04:27:00,
2013-06-14 21:37:00,52.0,43.2,29.89,SW,225,1.0,14.0,72,0.00,,,0.00,Weather View 32 v70,2013-06-15 04:37:00,
2013-06-14 21:42:00,52.0,43.2,29.89,SW,225,6.0,14.0,72,0.00,,,0.00,Weather View 32 v70,2013-06-15 04:42:00,
2013-06-14 21:47:00,52.0,43.6,29.89,SW,225,4.0,14.0,73,0.00,,,0.00,Weather View 32 v70,2013-06-15 04:47:00,
2013-06-14 21:52:00,52.0,44.0,29.89,SW,225,9.0,14.0,74,0.00,,,0.00,Weather View 32 v70,2013-06-15 04:52:00,
2013-06-14 21:57:00,52.0,44.0,29.90,SW,225,5.0,14.0,74,0.00,,,0.00,Weather View 32 v70,2013-06-15 04:57:00,
2013-06-14 22:02:00,52.0,44.0,29.90,SW,225,7.0,14.0,74,0.00,,,0.00,Weather View 32 v70,2013-06-15 05:02:00,
2013-06-14 22:07:00,52.0,45.0,29.90,SW,225,1.0,14.0,77,0.00,,,0.00,Weather View 32 v70,2013-06-15 05:07:00,
2013-06-14 22:12:00,51.0,43.7,29.90,SW,225,7.0,13.0,76,0.00,,,0.00,Weather View 32 v70,2013-06-15 05:12:00,
2013-06-14 22:17:00,51.0,43.7,29.89,SW,225,10.0,13.0,76,0.00,,,0.00,Weather View 32 v70,2013-06-15 05:17:00,
2013-06-14 22:22:00,51.0,43.7,29.89,SW,225,10.0,13.0,76,0.00,,,0.00,Weather View 32 v70,2013-06-15 05:22:00,
2013-06-14 22:27:00,51.0,44.0,29.90,SW,225,6.0,14.0,77,0.00,,,0.00,Weather View 32 v70,2013-06-15 05:27:00,
2013-06-14 22:29:00,51.0,44.0,29.90,SW,225,3.0,14.0,77,0.00,,,0.00,Weather View 32 v70,2013-06-15 05:29:00,
2013-06-14 22:33:00,51.0,44.0,29.90,SW,225,8.0,14.0,77,0.00,,,0.00,Weather View 32 v70,2013-06-15 05:33:00,
2013-06-14 22:38:00,51.0,44.0,29.90,SW,225,2.0,17.0,77,0.00,,,0.00,Weather View 32 v70,2013-06-15 05:38:00,
2013-06-14 22:43:00,51.0,44.0,29.90,SW,225,3.0,17.0,77,0.00,,,0.00,Weather View 32 v70,2013-06-15 05:43:00,
2013-06-14 22:48:00,51.0,44.0,29.90,SW,225,7.0,17.0,77,0.00,,,0.00,Weather View 32 v70,2013-06-15 05:48:00,
2013-06-14 22:53:00,51.0,44.0,29.90,SW,225,6.0,17.0,77,0.00,,,0.00,Weather View 32 v70,2013-06-15 05:53:00,
2013-06-14 22:58:00,51.0,44.0,29.90,SW,225,5.0,17.0,77,0.00,,,0.00,Weather View 32 v70,2013-06-15 05:58:00,
2013-06-14 23:03:00,51.0,44.7,29.90,SW,225,4.0,17.0,79,0.00,,,0.00,Weather View 32 v70,2013-06-15 06:03:00,
2013-06-14 23:08:00,51.0,44.0,29.90,SW,225,9.0,17.0,77,0.00,,,0.00,Weather View 32 v70,2013-06-15 06:08:00,
2013-06-14 23:13:00,51.0,44.0,29.90,SW,225,9.0,17.0,77,0.00,,,0.00,Weather View 32 v70,2013-06-15 06:13:00,
2013-06-14 23:18:00,51.0,44.0,29.90,SW,225,2.0,17.0,77,0.00,,,0.00,Weather View 32 v70,2013-06-15 06:18:00,
2013-06-14 23:24:00,51.0,44.0,29.90,SW,225,6.0,17.0,77,0.00,,,0.00,Weather View 32 v70,2013-06-15 06:24:00,
2013-06-14 23:28:00,51.0,44.0,29.89,SW,225,8.0,17.0,77,0.00,,,0.00,Weather View 32 v70,2013-06-15 06:28:00,
2013-06-14 23:33:00,51.0,44.0,29.89,SW,225,6.0,17.0,77,0.00,,,0.00,Weather View 32 v70,2013-06-15 06:33:00,
2013-06-14 23:38:00,51.0,44.7,29.89,SW,225,7.0,16.0,79,0.00,,,0.00,Weather View 32 v70,2013-06-15 06:38:00,
2013-06-14 23:48:00,51.0,44.0,29.89,SW,225,7.0,16.0,77,0.00,,,0.00,Weather View 32 v70,2013-06-15 06:48:00,
2013-06-14 23:53:00,51.0,44.0,29.89,SW,225,6.0,16.0,77,0.00,,,0.00,Weather View 32 v70,2013-06-15 06:53:00,
2013-06-14 23:58:00,51.0,44.0,29.89,SW,225,3.0,16.0,77,0.00,,,0.00,Weather View 32 v70,2013-06-15 06:58:00,